• In Uzbekistan
  • List of Countries
  • For 7 days
  • Water Temperature
  • Satellite Maps
  • Weather Map
  • Weather Widgets
  • user-avatar
    Login

    Hourly Weather Hoszowczyk

    Today, 22 February, Friday

    Time Temperature Precipitation Wind Pressure Humidity
    00:00 +2°C° 0.9 mm 3 mps 716 mmHg 90%
    01:00 +2°C° 0.9 mm 3 mps 716 mmHg 92%
    02:00 +2°C° 0 mm 2 mps 716 mmHg 93%
    03:00 +2°C° 0.6 mm 2 mps 716 mmHg 94%
    04:00 +2°C° 0.6 mm 2 mps 715 mmHg 94%
    05:00 +2°C° 0.6 mm 2 mps 715 mmHg 94%
    06:00 0°C° 0.9 mm 3 mps 715 mmHg 95%
    07:00 -2°C° 0.9 mm 4 mps 716 mmHg 95%
    08:00 -4°C° 0 mm 5 mps 716 mmHg 95%
    09:00 -5°C° 0.4 mm 5 mps 717 mmHg 92%
    10:00 -6°C° 0.4 mm 6 mps 718 mmHg 89%
    11:00 -9°C° 0.4 mm 6 mps 719 mmHg 87%
    12:00 -9°C° 0 mm 6 mps 720 mmHg 81%
    13:00 -8°C° 0 mm 7 mps 721 mmHg 75%
    14:00 -8°C° 0 mm 7 mps 722 mmHg 68%
    15:00 -9°C° 0 mm 7 mps 722 mmHg 67%
    16:00 -11°C° 0 mm 7 mps 723 mmHg 66%
    17:00 -11°C° 0 mm 7 mps 723 mmHg 65%
    18:00 -10°C° 0 mm 6 mps 724 mmHg 64%
    19:00 -11°C° 0 mm 6 mps 725 mmHg 63%
    20:00 -11°C° 0 mm 6 mps 726 mmHg 62%
    21:00 -11°C° 0 mm 6 mps 726 mmHg 63%
    22:00 -11°C° 0 mm 6 mps 727 mmHg 64%
    23:00 -11°C° 0 mm 6 mps 727 mmHg 65%

    Tomorrow, 23 February, Saturday

    Time Temperature Precipitation Wind Pressure Humidity
    00:00 -11°C° 0 mm 6 mps 728 mmHg 66%
    01:00 -12°C° 0 mm 6 mps 728 mmHg 68%
    02:00 -12°C° 0 mm 5 mps 729 mmHg 69%
    03:00 -12°C° 0 mm 5 mps 729 mmHg 70%
    04:00 -12°C° 0 mm 5 mps 729 mmHg 71%
    05:00 -12°C° 0 mm 5 mps 729 mmHg 72%
    06:00 -12°C° 0 mm 5 mps 730 mmHg 74%
    07:00 -12°C° 0 mm 5 mps 730 mmHg 75%
    08:00 -12°C° 0 mm 5 mps 730 mmHg 76%
    09:00 -11°C° 0 mm 4 mps 731 mmHg 74%
    10:00 -10°C° 0 mm 4 mps 731 mmHg 71%
    11:00 -9°C° 0 mm 4 mps 731 mmHg 69%
    12:00 -9°C° 0 mm 4 mps 731 mmHg 67%
    13:00 -8°C° 0 mm 4 mps 731 mmHg 65%
    14:00 -8°C° 0 mm 4 mps 731 mmHg 63%
    15:00 -7°C° 0 mm 3 mps 731 mmHg 63%
    16:00 -7°C° 0 mm 3 mps 731 mmHg 64%
    17:00 -6°C° 0 mm 2 mps 731 mmHg 64%
    18:00 -7°C° 0 mm 2 mps 731 mmHg 68%
    19:00 -8°C° 0 mm 2 mps 731 mmHg 72%
    20:00 -7°C° 0 mm 1 mps 731 mmHg 76%
    21:00 -7°C° 0 mm 1 mps 731 mmHg 77%
    22:00 -8°C° 0 mm 1 mps 731 mmHg 78%
    23:00 -8°C° 0 mm 0 mps 731 mmHg 78%

    Day after tomorrow, 24 February, Sunday

    Time Temperature Precipitation Wind Pressure Humidity
    00:00 -8°C° 0 mm 0 mps 731 mmHg 78%
    01:00 -8°C° 0 mm 0 mps 731 mmHg 77%
    02:00 -8°C° 0 mm 0 mps 731 mmHg 77%
    03:00 -8°C° 0 mm 0 mps 731 mmHg 74%
    04:00 -7°C° 0 mm 0 mps 730 mmHg 71%
    05:00 -7°C° 0 mm 0 mps 730 mmHg 69%
    06:00 -7°C° 0 mm 0 mps 730 mmHg 68%
    07:00 -7°C° 0 mm 0 mps 730 mmHg 67%
    08:00 -7°C° 0 mm 0 mps 730 mmHg 66%
    09:00 -4°C° 0 mm 1 mps 730 mmHg 58%
    10:00 -2°C° 0 mm 1 mps 730 mmHg 51%
    11:00 -1°C° 0 mm 1 mps 730 mmHg 44%
    12:00 0°C° 0 mm 1 mps 730 mmHg 44%
    13:00 +1°C° 0 mm 1 mps 730 mmHg 45%
    14:00 +1°C° 0 mm 2 mps 730 mmHg 45%
    15:00 +1°C° 0 mm 2 mps 729 mmHg 47%
    16:00 -1°C° 0 mm 2 mps 729 mmHg 49%
    17:00 -1°C° 0 mm 2 mps 729 mmHg 50%
    18:00 0°C° 0 mm 1 mps 729 mmHg 53%
    19:00 -1°C° 0 mm 1 mps 729 mmHg 55%
    20:00 -3°C° 0 mm 1 mps 729 mmHg 57%
    21:00 -3°C° 0 mm 1 mps 729 mmHg 57%
    22:00 -3°C° 0 mm 1 mps 729 mmHg 56%
    23:00 -3°C° 0 mm 1 mps 729 mmHg 56%

    25 February, Monday

    Time Temperature Precipitation Wind Pressure Humidity
    00:00 -2°C° 0 mm 1 mps 729 mmHg 56%
    01:00 -2°C° 0 mm 1 mps 729 mmHg 57%
    02:00 -2°C° 0 mm 1 mps 729 mmHg 57%
    03:00 -2°C° 0 mm 1 mps 729 mmHg 59%
    04:00 -2°C° 0 mm 1 mps 728 mmHg 61%
    05:00 -2°C° 0 mm 1 mps 728 mmHg 63%
    06:00 -2°C° 0 mm 1 mps 728 mmHg 64%
    07:00 -2°C° 0 mm 1 mps 728 mmHg 66%
    08:00 -3°C° 0 mm 2 mps 728 mmHg 67%
    09:00 -2°C° 0 mm 2 mps 728 mmHg 66%
    10:00 +1°C° 0 mm 2 mps 728 mmHg 66%
    11:00 +1°C° 0 mm 3 mps 728 mmHg 65%
    12:00 +2°C° 0 mm 3 mps 728 mmHg 68%
    13:00 +2°C° 0 mm 3 mps 728 mmHg 71%
    14:00 +3°C° 0 mm 3 mps 728 mmHg 74%
    15:00 +2°C° 0 mm 3 mps 728 mmHg 78%
    16:00 +2°C° 0 mm 3 mps 727 mmHg 81%
    17:00 +2°C° 0 mm 3 mps 727 mmHg 85%
    18:00 +2°C° 0 mm 2 mps 727 mmHg 89%
    19:00 +1°C° 0 mm 2 mps 727 mmHg 92%
    20:00 -1°C° 0 mm 2 mps 727 mmHg 96%
    21:00 0°C° 0 mm 1 mps 727 mmHg 96%
    22:00 0°C° 0 mm 1 mps 727 mmHg 96%
    23:00 0°C° 0 mm 1 mps 727 mmHg 96%

    26 February, Tuesday

    Time Temperature Precipitation Wind Pressure Humidity
    00:00 0°C° 0 mm 1 mps 726 mmHg 96%
    01:00 0°C° 0 mm 1 mps 726 mmHg 95%
    02:00 -1°C° 0 mm 1 mps 725 mmHg 95%
    03:00 0°C° 0 mm 1 mps 725 mmHg 93%
    04:00 -2°C° 0 mm 2 mps 724 mmHg 92%
    05:00 -2°C° 0 mm 2 mps 723 mmHg 91%
    06:00 -1°C° 0 mm 2 mps 723 mmHg 88%
    07:00 -1°C° 0 mm 3 mps 723 mmHg 85%
    08:00 0°C° 0 mm 3 mps 722 mmHg 82%
    09:00 +1°C° 0 mm 3 mps 722 mmHg 77%
    10:00 +1°C° 0 mm 4 mps 721 mmHg 72%
    11:00 +2°C° 0 mm 5 mps 721 mmHg 66%
    12:00 +2°C° 0 mm 5 mps 721 mmHg 68%
    13:00 +2°C° 0 mm 5 mps 720 mmHg 69%
    14:00 +3°C° 0 mm 6 mps 720 mmHg 71%
    15:00 +2°C° 0 mm 5 mps 719 mmHg 74%
    16:00 +2°C° 0 mm 5 mps 719 mmHg 77%
    17:00 +1°C° 0 mm 5 mps 719 mmHg 81%
    18:00 +1°C° 0 mm 5 mps 719 mmHg 84%
    19:00 0°C° 0 mm 4 mps 719 mmHg 88%
    20:00 -1°C° 0 mm 4 mps 719 mmHg 92%
    21:00 -1°C° 0 mm 4 mps 719 mmHg 92%
    22:00 -1°C° 0 mm 4 mps 719 mmHg 91%
    23:00 -2°C° 0 mm 5 mps 719 mmHg 91%

    27 February, Wednesday

    Time Temperature Precipitation Wind Pressure Humidity
    00:00 -2°C° 0 mm 5 mps 719 mmHg 89%
    01:00 -3°C° 0 mm 4 mps 719 mmHg 87%
    02:00 -3°C° 0 mm 4 mps 719 mmHg 85%
    03:00 -3°C° 0 mm 4 mps 719 mmHg 86%
    04:00 -4°C° 0 mm 5 mps 719 mmHg 86%
    05:00 -4°C° 0 mm 5 mps 719 mmHg 86%
    06:00 -4°C° 0.1 mm 5 mps 719 mmHg 87%
    07:00 -5°C° 0.1 mm 5 mps 719 mmHg 87%
    08:00 -5°C° 0.1 mm 5 mps 719 mmHg 88%
    09:00 -4°C° 0.1 mm 5 mps 719 mmHg 87%
    10:00 -4°C° 0.1 mm 5 mps 720 mmHg 86%
    11:00 -4°C° 0.1 mm 5 mps 720 mmHg 85%
    12:00 -2°C° 0.1 mm 5 mps 720 mmHg 84%
    13:00 -2°C° 0.1 mm 5 mps 720 mmHg 82%
    14:00 -1°C° 0.1 mm 5 mps 719 mmHg 81%
    15:00 -1°C° 0 mm 4 mps 719 mmHg 81%
    16:00 0°C° 0 mm 3 mps 719 mmHg 82%
    17:00 0°C° 0 mm 3 mps 719 mmHg 83%
    18:00 -1°C° 0 mm 2 mps 719 mmHg 85%
    19:00 +1°C° 0 mm 1 mps 719 mmHg 88%
    20:00 -1°C° 0 mm 0 mps 719 mmHg 90%
    21:00 -1°C° 0 mm 0 mps 719 mmHg 91%
    22:00 -1°C° 0 mm 0 mps 719 mmHg 92%
    23:00 -1°C° 0 mm 1 mps 719 mmHg 92%
    Show more